Location: Lawrence Hall of Science
(37.8785°N, 122.2415°W)
Time: 18:07:34
(UTC-07:00)

Cosmos 1461 - Visible Passes

Search period start: 28 March 2015 00:00
Search period end: 07 April 2015 00:00
Orbit: 519 x 670 km, 65.0° (Epoch: 27 March)

Date Brightness Start Highest point End Pass type
(mag) Time Alt. Az. Time Alt. Az. Time Alt. Az.
02 Apr 5.6 05:53:42 10° SSE 05:56:18 17° ESE 05:59:05 10° ENE visible
03 Apr 4.5 06:02:06 10° S 06:05:39 33° ESE 06:09:23 10° NE visible
04 Apr 3.2 06:11:07 10° SSW 06:15:03 66° ESE 06:19:10 10° NE visible
05 Apr 2.9 06:20:35 10° SW 06:24:32 62° WNW 06:28:40 10° NNE visible
06 Apr 5.2 04:52:14 10° SSE 04:55:01 19° ESE 04:57:58 10° ENE visible
